Time,TemperatureF,DewpointF,PressureIn,WindDirection,WindDirectionDegrees,WindSpeedMPH,WindSpeedGustMPH,Humidity,HourlyPrecipIn,Conditions,Clouds,dailyrainin,SolarRadiationWatts/m^2,SoftwareType,DateUTC
2013-05-30 00:01:00,55.0,54.5,29.88,NE,35,0.0,3.0,98,0.00,,,0.00,0.0,meteohub,2013-05-30 04:01:00,
2013-05-30 00:02:00,55.0,54.5,29.89,East,84,0.0,3.0,98,0.00,,,0.00,0.0,meteohub,2013-05-30 04:02:00,
2013-05-30 00:14:00,55.0,54.5,29.88,ENE,59,1.0,5.0,98,0.00,,,0.00,0.0,meteohub,2013-05-30 04:14:00,
2013-05-30 00:20:00,54.9,54.3,29.88,ENE,59,0.0,5.0,98,0.00,,,0.00,0.0,meteohub,2013-05-30 04:20:00,
2013-05-30 00:25:00,54.9,54.3,29.88,East,97,0.0,5.0,98,0.00,,,0.00,0.0,meteohub,2013-05-30 04:25:00,
2013-05-30 00:30:00,54.9,54.3,29.88,East,97,0.0,2.0,98,0.00,,,0.00,0.0,meteohub,2013-05-30 04:30:00,
2013-05-30 00:35:00,54.9,54.5,29.88,ESE,115,1.0,2.0,99,0.00,,,0.00,0.0,meteohub,2013-05-30 04:35:00,
2013-05-30 00:40:00,54.9,54.5,29.88,SSE,167,0.0,2.0,99,0.00,,,0.00,0.0,meteohub,2013-05-30 04:40:00,
2013-05-30 00:45:00,54.9,54.3,29.88,ESE,114,2.0,2.0,98,0.00,,,0.00,0.0,meteohub,2013-05-30 04:45:00,
2013-05-30 00:50:00,54.7,54.1,29.88,ESE,115,0.0,2.0,98,0.00,,,0.00,0.0,meteohub,2013-05-30 04:50:00,
2013-05-30 00:55:00,54.7,54.1,29.88,ESE,115,1.0,2.0,98,0.00,,,0.00,0.0,meteohub,2013-05-30 04:55:00,
2013-05-30 01:00:00,54.5,54.0,29.88,ESE,105,0.0,2.0,98,0.00,,,0.00,0.0,meteohub,2013-05-30 05:00:00,
2013-05-30 01:05:00,54.7,54.1,29.89,ESE,116,0.0,2.0,98,0.00,,,0.00,0.0,meteohub,2013-05-30 05:05:00,
2013-05-30 01:10:00,54.9,54.5,29.89,ESE,123,0.0,2.0,99,0.00,,,0.00,0.0,meteohub,2013-05-30 05:10:00,
2013-05-30 01:15:00,54.9,54.5,29.90,East,84,1.0,2.0,99,0.00,,,0.00,0.0,meteohub,2013-05-30 05:15:00,
2013-05-30 01:20:00,54.3,54.0,29.90,East,84,1.0,2.0,99,0.00,,,0.00,0.0,meteohub,2013-05-30 05:20:00,
2013-05-30 01:25:00,54.3,54.0,29.90,East,84,0.0,2.0,99,0.00,,,0.00,0.0,meteohub,2013-05-30 05:25:00,
2013-05-30 01:30:00,54.1,53.8,29.90,East,84,0.0,2.0,99,0.00,,,0.00,0.0,meteohub,2013-05-30 05:30:00,
2013-05-30 01:35:00,54.1,53.6,29.90,East,84,0.0,1.0,98,0.00,,,0.00,0.0,meteohub,2013-05-30 05:35:00,
2013-05-30 01:40:00,54.1,53.6,29.91,East,84,0.0,1.0,98,0.00,,,0.00,0.0,meteohub,2013-05-30 05:40:00,
2013-05-30 01:45:00,54.1,53.8,29.90,East,84,0.0,2.0,99,0.00,,,0.00,0.0,meteohub,2013-05-30 05:45:00,
2013-05-30 01:50:00,54.1,53.8,29.91,East,84,0.0,2.0,99,0.00,,,0.00,0.0,meteohub,2013-05-30 05:50:00,
2013-05-30 01:55:00,54.1,53.8,29.91,East,84,0.0,2.0,99,0.00,,,0.00,0.0,meteohub,2013-05-30 05:55:00,
2013-05-30 02:00:00,54.1,53.8,29.91,East,84,1.0,1.0,99,0.00,,,0.00,0.0,meteohub,2013-05-30 06:00:00,
2013-05-30 02:05:00,54.1,53.8,29.91,East,84,0.0,1.0,99,0.00,,,0.00,0.0,meteohub,2013-05-30 06:05:00,
2013-05-30 02:10:00,54.3,54.0,29.91,East,84,1.0,1.0,99,0.00,,,0.00,0.0,meteohub,2013-05-30 06:10:00,
2013-05-30 02:15:00,54.3,54.0,29.90,East,84,0.0,1.0,99,0.00,,,0.00,0.0,meteohub,2013-05-30 06:15:00,
2013-05-30 02:20:00,54.3,54.0,29.90,East,84,1.0,2.0,99,0.00,,,0.00,0.0,meteohub,2013-05-30 06:20:00,
2013-05-30 02:26:00,54.5,54.1,29.90,East,84,1.0,2.0,99,0.00,,,0.00,0.0,meteohub,2013-05-30 06:26:00,
2013-05-30 02:31:00,54.7,54.3,29.90,East,84,1.0,2.0,99,0.00,,,0.00,0.0,meteohub,2013-05-30 06:31:00,
2013-05-30 02:36:00,54.9,54.5,29.90,East,84,0.0,2.0,99,0.00,,,0.00,0.0,meteohub,2013-05-30 06:36:00,
2013-05-30 02:41:00,54.9,54.5,29.90,SE,134,1.0,2.0,99,0.00,,,0.00,0.0,meteohub,2013-05-30 06:41:00,
2013-05-30 02:46:00,54.9,54.5,29.90,SE,126,1.0,2.0,99,0.00,,,0.00,0.0,meteohub,2013-05-30 06:46:00,
2013-05-30 02:51:00,54.9,54.5,29.90,SSE,158,0.0,2.0,99,0.00,,,0.00,0.0,meteohub,2013-05-30 06:51:00,
2013-05-30 02:56:00,54.9,54.5,29.90,South,171,0.0,2.0,99,0.00,,,0.00,0.0,meteohub,2013-05-30 06:56:00,
2013-05-30 03:01:00,54.9,54.5,29.90,ESE,107,0.0,2.0,99,0.00,,,0.00,0.0,meteohub,2013-05-30 07:01:00,
2013-05-30 03:06:00,55.0,54.7,29.89,ESE,102,1.0,2.0,99,0.00,,,0.00,0.0,meteohub,2013-05-30 07:06:00,
2013-05-30 03:11:00,55.2,54.9,29.89,ESE,121,2.0,3.0,99,0.00,,,0.00,0.0,meteohub,2013-05-30 07:11:00,
2013-05-30 03:16:00,55.2,54.9,29.89,SE,130,1.0,3.0,99,0.00,,,0.00,0.0,meteohub,2013-05-30 07:16:00,
2013-05-30 03:21:00,55.2,54.9,29.89,South,170,0.0,3.0,99,0.00,,,0.00,0.0,meteohub,2013-05-30 07:21:00,
2013-05-30 03:26:00,55.2,54.9,29.89,SSE,155,2.0,3.0,99,0.00,,,0.00,0.0,meteohub,2013-05-30 07:26:00,
2013-05-30 03:31:00,55.2,54.9,29.89,South,184,0.0,3.0,99,0.00,,,0.00,0.0,meteohub,2013-05-30 07:31:00,
2013-05-30 03:36:00,55.4,55.0,29.89,SSE,165,1.0,3.0,99,0.00,,,0.00,0.0,meteohub,2013-05-30 07:36:00,
2013-05-30 03:41:00,55.4,55.0,29.89,SSE,147,1.0,3.0,99,0.00,,,0.00,0.0,meteohub,2013-05-30 07:41:00,
2013-05-30 03:46:00,55.4,55.0,29.88,SE,142,2.0,3.0,99,0.00,,,0.00,0.0,meteohub,2013-05-30 07:46:00,
2013-05-30 03:51:00,55.4,55.0,29.88,SE,146,0.0,2.0,99,0.00,,,0.00,0.0,meteohub,2013-05-30 07:51:00,
2013-05-30 03:56:00,55.6,55.2,29.88,SSE,147,0.0,2.0,99,0.00,,,0.00,0.0,meteohub,2013-05-30 07:56:00,
2013-05-30 04:01:00,55.4,55.0,29.88,SSE,153,1.0,3.0,99,0.00,,,0.00,0.0,meteohub,2013-05-30 08:01:00,
2013-05-30 04:06:00,55.6,55.2,29.88,ESE,122,1.0,3.0,99,0.00,,,0.00,0.0,meteohub,2013-05-30 08:06:00,
2013-05-30 04:11:00,55.6,55.2,29.88,SW,215,1.0,3.0,99,0.00,,,0.00,0.0,meteohub,2013-05-30 08:11:00,
2013-05-30 04:16:00,55.8,55.4,29.88,SSW,213,0.0,2.0,99,0.00,,,0.00,0.0,meteohub,2013-05-30 08:16:00,
2013-05-30 04:21:00,55.8,55.8,29.88,South,172,0.0,2.0,100,0.00,,,0.00,0.0,meteohub,2013-05-30 08:21:00,
2013-05-30 04:26:00,55.8,55.8,29.88,SSE,168,0.0,2.0,100,0.00,,,0.00,0.0,meteohub,2013-05-30 08:26:00,
2013-05-30 04:31:00,55.9,55.9,29.88,SSE,165,1.0,2.0,100,0.00,,,0.00,0.0,meteohub,2013-05-30 08:31:00,
2013-05-30 04:37:00,55.9,55.9,29.88,SSE,164,1.0,2.0,100,0.00,,,0.00,0.0,meteohub,2013-05-30 08:37:00,
2013-05-30 04:42:00,55.9,55.6,29.88,SSE,165,1.0,2.0,99,0.00,,,0.00,0.0,meteohub,2013-05-30 08:42:00,
2013-05-30 04:47:00,56.1,55.8,29.88,SSW,196,1.0,3.0,99,0.00,,,0.00,0.0,meteohub,2013-05-30 08:47:00,
2013-05-30 04:52:00,56.3,56.3,29.88,SSE,156,0.0,3.0,100,0.00,,,0.00,0.0,meteohub,2013-05-30 08:52:00,
2013-05-30 04:57:00,56.1,55.8,29.88,South,178,1.0,3.0,99,0.00,,,0.00,0.0,meteohub,2013-05-30 08:57:00,
2013-05-30 05:02:00,56.1,56.1,29.88,SSE,161,1.0,2.0,100,0.00,,,0.00,0.0,meteohub,2013-05-30 09:02:00,
2013-05-30 05:07:00,56.1,56.1,29.88,SSE,159,2.0,3.0,100,0.00,,,0.00,0.0,meteohub,2013-05-30 09:07:00,
2013-05-30 05:12:00,56.1,56.1,29.88,SSE,159,0.0,3.0,100,0.00,,,0.00,0.0,meteohub,2013-05-30 09:12:00,
2013-05-30 05:17:00,56.1,56.1,29.88,SSE,159,0.0,2.0,100,0.00,,,0.00,0.0,meteohub,2013-05-30 09:17:00,
2013-05-30 05:22:00,56.1,55.8,29.88,SSE,159,0.0,2.0,99,0.00,,,0.00,0.0,meteohub,2013-05-30 09:22:00,
2013-05-30 05:27:00,56.1,55.8,29.88,SSE,159,0.0,2.0,99,0.00,,,0.00,0.0,meteohub,2013-05-30 09:27:00,
2013-05-30 05:32:00,56.1,55.8,29.89,SSE,159,0.0,1.0,99,0.00,,,0.00,0.0,meteohub,2013-05-30 09:32:00,
2013-05-30 05:37:00,56.1,56.1,29.89,SSE,156,0.0,1.0,100,0.00,,,0.00,0.0,meteohub,2013-05-30 09:37:00,
2013-05-30 05:42:00,56.1,56.1,29.89,SSE,156,1.0,2.0,100,0.00,,,0.00,0.0,meteohub,2013-05-30 09:42:00,
2013-05-30 05:47:00,55.9,55.9,29.89,SSE,156,0.0,2.0,100,0.00,,,0.00,0.0,meteohub,2013-05-30 09:47:00,
2013-05-30 05:52:00,55.9,55.9,29.88,SSE,156,0.0,2.0,100,0.00,,,0.00,0.0,meteohub,2013-05-30 09:52:00,
2013-05-30 05:57:00,55.8,55.8,29.89,South,179,0.0,3.0,100,0.00,,,0.00,0.0,meteohub,2013-05-30 09:57:00,
2013-05-30 06:02:00,55.8,55.8,29.89,SSE,154,0.0,3.0,100,0.00,,,0.00,5.0,meteohub,2013-05-30 10:02:00,
2013-05-30 06:07:00,55.8,55.8,29.89,SE,146,0.0,3.0,100,0.00,,,0.00,7.0,meteohub,2013-05-30 10:07:00,
2013-05-30 06:12:00,55.8,55.8,29.89,South,172,1.0,2.0,100,0.00,,,0.00,9.0,meteohub,2013-05-30 10:12:00,
2013-05-30 06:17:00,55.8,55.8,29.89,South,178,0.0,2.0,100,0.00,,,0.00,12.0,meteohub,2013-05-30 10:17:00,
2013-05-30 06:22:00,55.8,55.8,29.90,South,185,0.0,2.0,100,0.00,,,0.00,14.0,meteohub,2013-05-30 10:22:00,
2013-05-30 06:27:00,55.9,55.9,29.90,SSE,163,1.0,2.0,100,0.00,,,0.00,18.0,meteohub,2013-05-30 10:27:00,
2013-05-30 06:32:00,55.9,55.9,29.89,South,176,1.0,2.0,100,0.00,,,0.00,21.0,meteohub,2013-05-30 10:32:00,
2013-05-30 06:37:00,56.1,56.1,29.89,South,184,1.0,2.0,100,0.00,,,0.00,28.0,meteohub,2013-05-30 10:37:00,
2013-05-30 06:42:00,56.3,56.3,29.89,SSE,148,1.0,3.0,100,0.00,,,0.00,35.0,meteohub,2013-05-30 10:42:00,
2013-05-30 06:47:00,56.5,56.5,29.90,South,181,3.0,3.0,100,0.00,,,0.00,42.0,meteohub,2013-05-30 10:47:00,
2013-05-30 06:52:00,56.7,56.7,29.89,SE,146,1.0,3.0,100,0.00,,,0.00,54.0,meteohub,2013-05-30 10:52:00,
2013-05-30 06:57:00,56.8,56.8,29.89,SSE,165,1.0,3.0,100,0.00,,,0.00,70.0,meteohub,2013-05-30 10:57:00,
2013-05-30 07:02:00,57.2,57.2,29.90,South,180,1.0,3.0,100,0.00,,,0.00,84.0,meteohub,2013-05-30 11:02:00,
2013-05-30 07:07:00,57.6,57.6,29.90,SE,134,3.0,3.0,100,0.00,,,0.00,102.0,meteohub,2013-05-30 11:07:00,
2013-05-30 07:12:00,57.7,57.7,29.90,South,184,1.0,3.0,100,0.00,,,0.00,114.0,meteohub,2013-05-30 11:12:00,
2013-05-30 07:17:00,58.3,58.3,29.90,SE,128,1.0,4.0,100,0.00,,,0.00,142.0,meteohub,2013-05-30 11:17:00,
2013-05-30 07:22:00,58.8,58.8,29.90,ESE,119,1.0,4.0,100,0.00,,,0.00,190.0,meteohub,2013-05-30 11:22:00,
2013-05-30 07:27:00,59.4,59.4,29.90,SSE,162,1.0,4.0,100,0.00,,,0.00,220.0,meteohub,2013-05-30 11:27:00,
2013-05-30 07:32:00,59.9,59.9,29.89,SSW,198,2.0,4.0,100,0.00,,,0.00,216.0,meteohub,2013-05-30 11:32:00,
2013-05-30 07:37:00,60.4,60.4,29.89,South,173,3.0,4.0,100,0.00,,,0.00,120.0,meteohub,2013-05-30 11:37:00,
2013-05-30 07:42:00,60.6,60.6,29.89,SSE,163,2.0,4.0,100,0.00,,,0.00,65.0,meteohub,2013-05-30 11:42:00,
2013-05-30 07:47:00,60.8,60.8,29.90,SSW,207,3.0,5.0,100,0.00,,,0.00,158.0,meteohub,2013-05-30 11:47:00,
2013-05-30 07:52:00,61.2,61.2,29.89,South,186,2.0,5.0,100,0.00,,,0.00,188.0,meteohub,2013-05-30 11:52:00,
2013-05-30 07:57:00,61.5,61.5,29.89,South,173,2.0,3.0,100,0.00,,,0.00,243.0,meteohub,2013-05-30 11:57:00,
2013-05-30 08:02:00,62.2,62.2,29.89,South,186,2.0,4.0,100,0.00,,,0.00,244.0,meteohub,2013-05-30 12:02:00,
2013-05-30 08:07:00,63.0,63.0,29.89,SSW,194,1.0,4.0,100,0.00,,,0.00,271.0,meteohub,2013-05-30 12:07:00,
2013-05-30 08:12:00,63.7,63.7,29.89,SSW,192,1.0,4.0,100,0.00,,,0.00,290.0,meteohub,2013-05-30 12:12:00,
2013-05-30 08:17:00,64.4,64.0,29.89,SSW,192,1.0,4.0,99,0.00,,,0.00,304.0,meteohub,2013-05-30 12:17:00,
2013-05-30 08:22:00,65.1,64.2,29.89,SSW,202,2.0,5.0,97,0.00,,,0.00,315.0,meteohub,2013-05-30 12:22:00,
2013-05-30 08:27:00,65.8,64.6,29.89,SSW,201,3.0,5.0,96,0.00,,,0.00,334.0,meteohub,2013-05-30 12:27:00,
2013-05-30 08:32:00,66.6,64.8,29.89,South,186,2.0,5.0,94,0.00,,,0.00,355.0,meteohub,2013-05-30 12:32:00,
2013-05-30 08:37:00,67.5,65.3,29.89,South,181,2.0,5.0,93,0.00,,,0.00,387.0,meteohub,2013-05-30 12:37:00,
2013-05-30 08:43:00,68.2,65.8,29.89,ESE,115,3.0,5.0,92,0.00,,,0.00,406.0,meteohub,2013-05-30 12:43:00,
2013-05-30 08:48:00,68.7,66.0,29.89,South,172,5.0,5.0,91,0.00,,,0.00,415.0,meteohub,2013-05-30 12:48:00,
2013-05-30 08:52:00,69.3,65.8,29.89,SW,221,3.0,5.0,89,0.00,,,0.00,432.0,meteohub,2013-05-30 12:52:00,
2013-05-30 08:58:00,69.8,66.0,29.89,SW,217,4.0,7.0,88,0.00,,,0.00,446.0,meteohub,2013-05-30 12:58:00,
2013-05-30 09:03:00,70.3,66.6,29.89,South,183,1.0,8.0,88,0.00,,,0.00,462.0,meteohub,2013-05-30 13:03:00,
2013-05-30 09:08:00,71.1,66.9,29.89,South,177,3.0,8.0,87,0.00,,,0.00,482.0,meteohub,2013-05-30 13:08:00,
2013-05-30 09:13:00,71.8,67.3,29.89,South,173,5.0,8.0,86,0.00,,,0.00,494.0,meteohub,2013-05-30 13:13:00,
2013-05-30 09:18:00,72.1,67.1,29.89,SW,228,5.0,6.0,84,0.00,,,0.00,510.0,meteohub,2013-05-30 13:18:00,
2013-05-30 09:23:00,72.7,67.8,29.89,South,169,4.0,6.0,85,0.00,,,0.00,524.0,meteohub,2013-05-30 13:23:00,
2013-05-30 09:28:00,72.9,66.7,29.88,SSW,199,3.0,6.0,81,0.00,,,0.00,534.0,meteohub,2013-05-30 13:28:00,
2013-05-30 09:33:00,73.2,67.5,29.88,SW,235,3.0,7.0,82,0.00,,,0.00,552.0,meteohub,2013-05-30 13:33:00,
2013-05-30 09:38:00,73.8,67.6,29.88,SSW,202,3.0,7.0,81,0.00,,,0.00,566.0,meteohub,2013-05-30 13:38:00,
2013-05-30 09:43:00,74.5,67.8,29.88,South,180,1.0,9.0,80,0.00,,,0.00,578.0,meteohub,2013-05-30 13:43:00,
2013-05-30 09:48:00,75.0,67.6,29.88,SSW,211,6.0,9.0,78,0.00,,,0.00,592.0,meteohub,2013-05-30 13:48:00,
2013-05-30 09:53:00,75.7,68.0,29.88,WSW,241,3.0,7.0,77,0.00,,,0.00,608.0,meteohub,2013-05-30 13:53:00,
2013-05-30 09:58:00,75.9,68.2,29.88,WSW,237,1.0,7.0,77,0.00,,,0.00,605.0,meteohub,2013-05-30 13:58:00,
2013-05-30 10:03:00,75.9,67.5,29.88,SSW,205,4.0,7.0,75,0.00,,,0.00,591.0,meteohub,2013-05-30 14:03:00,
2013-05-30 10:08:00,75.9,68.2,29.88,WSW,254,1.0,11.0,77,0.00,,,0.00,645.0,meteohub,2013-05-30 14:08:00,
2013-05-30 10:13:00,76.8,67.8,29.88,SSW,211,3.0,11.0,74,0.00,,,0.00,654.0,meteohub,2013-05-30 14:13:00,
2013-05-30 10:18:00,76.6,68.2,29.88,SW,227,3.0,11.0,75,0.00,,,0.00,661.0,meteohub,2013-05-30 14:18:00,
2013-05-30 10:23:00,76.5,68.0,29.88,SSW,206,3.0,9.0,75,0.00,,,0.00,686.0,meteohub,2013-05-30 14:23:00,
2013-05-30 10:28:00,76.8,68.4,29.88,SSW,213,2.0,8.0,75,0.00,,,0.00,682.0,meteohub,2013-05-30 14:28:00,
2013-05-30 10:33:00,77.4,68.4,29.88,SSW,207,7.0,8.0,74,0.00,,,0.00,693.0,meteohub,2013-05-30 14:33:00,
2013-05-30 10:38:00,77.9,69.3,29.88,SW,215,4.0,8.0,75,0.00,,,0.00,691.0,meteohub,2013-05-30 14:38:00,
2013-05-30 10:43:00,78.6,68.9,29.88,SW,226,2.0,8.0,72,0.00,,,0.00,707.0,meteohub,2013-05-30 14:43:00,
2013-05-30 10:48:00,79.3,68.7,29.88,SW,217,1.0,8.0,70,0.00,,,0.00,722.0,meteohub,2013-05-30 14:48:00,
2013-05-30 10:53:00,78.6,67.1,29.88,SW,227,5.0,7.0,68,0.00,,,0.00,719.0,meteohub,2013-05-30 14:53:00,
2013-05-30 10:58:00,78.4,68.2,29.88,SSW,202,4.0,11.0,71,0.00,,,0.00,756.0,meteohub,2013-05-30 14:58:00,
2013-05-30 11:03:00,79.0,68.4,29.88,WSW,238,4.0,11.0,70,0.00,,,0.00,768.0,meteohub,2013-05-30 15:03:00,
2013-05-30 11:08:00,79.3,67.8,29.88,WSW,240,3.0,11.0,68,0.00,,,0.00,810.0,meteohub,2013-05-30 15:08:00,
2013-05-30 11:13:00,80.2,68.7,29.88,WSW,252,4.0,11.0,68,0.00,,,0.00,810.0,meteohub,2013-05-30 15:13:00,
2013-05-30 11:18:00,80.6,69.4,29.88,West,269,4.0,11.0,69,0.00,,,0.00,828.0,meteohub,2013-05-30 15:18:00,
2013-05-30 11:23:00,81.3,68.4,29.88,West,265,1.0,11.0,65,0.00,,,0.00,821.0,meteohub,2013-05-30 15:23:00,
2013-05-30 11:28:00,80.8,68.0,29.88,SW,236,4.0,13.0,65,0.00,,,0.00,823.0,meteohub,2013-05-30 15:28:00,
2013-05-30 11:33:00,81.0,67.6,29.88,WSW,238,6.0,13.0,64,0.00,,,0.00,919.0,meteohub,2013-05-30 15:33:00,
2013-05-30 11:38:00,81.5,68.2,29.88,SW,215,4.0,13.0,64,0.00,,,0.00,923.0,meteohub,2013-05-30 15:38:00,
2013-05-30 11:43:00,82.0,68.7,29.88,SSW,205,6.0,8.0,64,0.00,,,0.00,851.0,meteohub,2013-05-30 15:43:00,
2013-05-30 11:48:00,82.4,68.5,29.88,SSW,208,3.0,8.0,63,0.00,,,0.00,858.0,meteohub,2013-05-30 15:48:00,
2013-05-30 11:54:00,82.2,67.5,29.88,SW,230,1.0,8.0,61,0.00,,,0.00,882.0,meteohub,2013-05-30 15:54:00,
2013-05-30 11:59:00,82.0,66.7,29.88,SW,219,8.0,9.0,60,0.00,,,0.00,905.0,meteohub,2013-05-30 15:59:00,
2013-05-30 12:04:00,82.2,67.5,29.88,WSW,242,1.0,9.0,61,0.00,,,0.00,891.0,meteohub,2013-05-30 16:04:00,
2013-05-30 12:09:00,82.8,66.9,29.88,SW,219,2.0,13.0,59,0.00,,,0.00,900.0,meteohub,2013-05-30 16:09:00,
2013-05-30 12:14:00,83.3,66.9,29.88,SW,220,1.0,13.0,58,0.00,,,0.00,900.0,meteohub,2013-05-30 16:14:00,
2013-05-30 12:19:00,82.8,67.5,29.88,SW,227,2.0,10.0,60,0.00,,,0.00,946.0,meteohub,2013-05-30 16:19:00,
2013-05-30 12:24:00,83.7,67.3,29.88,SW,219,0.0,10.0,58,0.00,,,0.00,891.0,meteohub,2013-05-30 16:24:00,
2013-05-30 12:29:00,84.9,68.0,29.88,South,182,2.0,9.0,57,0.00,,,0.00,911.0,meteohub,2013-05-30 16:29:00,
2013-05-30 12:34:00,83.7,66.4,29.88,SSW,211,5.0,8.0,56,0.00,,,0.00,925.0,meteohub,2013-05-30 16:34:00,
2013-05-30 12:39:00,84.4,68.0,29.87,SW,232,6.0,11.0,58,0.00,,,0.00,921.0,meteohub,2013-05-30 16:39:00,
2013-05-30 12:44:00,83.5,67.1,29.87,WSW,246,2.0,11.0,58,0.00,,,0.00,962.0,meteohub,2013-05-30 16:44:00,
2013-05-30 12:49:00,82.8,66.6,29.87,SW,217,5.0,11.0,58,0.00,,,0.00,306.0,meteohub,2013-05-30 16:49:00,
2013-05-30 12:54:00,83.5,67.6,29.87,SW,234,2.0,10.0,59,0.00,,,0.00,976.0,meteohub,2013-05-30 16:54:00,
2013-05-30 12:59:00,84.2,66.2,29.87,SW,221,2.0,10.0,55,0.00,,,0.00,969.0,meteohub,2013-05-30 16:59:00,
2013-05-30 13:04:00,84.7,67.3,29.87,WSW,257,2.0,11.0,56,0.00,,,0.00,965.0,meteohub,2013-05-30 17:04:00,
2013-05-30 13:09:00,84.6,66.0,29.86,SSW,201,5.0,11.0,54,0.00,,,0.00,958.0,meteohub,2013-05-30 17:09:00,
2013-05-30 13:14:00,84.7,67.8,29.86,SSW,211,1.0,11.0,57,0.00,,,0.00,965.0,meteohub,2013-05-30 17:14:00,
2013-05-30 13:19:00,84.2,66.7,29.86,SSW,211,6.0,12.0,56,0.00,,,0.00,969.0,meteohub,2013-05-30 17:19:00,
2013-05-30 13:24:00,84.7,67.8,29.86,SW,231,3.0,12.0,57,0.00,,,0.00,976.0,meteohub,2013-05-30 17:24:00,
2013-05-30 13:29:00,84.7,66.2,29.86,SW,231,3.0,11.0,54,0.00,,,0.00,1037.0,meteohub,2013-05-30 17:29:00,
2013-05-30 13:34:00,84.6,67.1,29.86,SSW,198,2.0,11.0,56,0.00,,,0.00,424.0,meteohub,2013-05-30 17:34:00,
2013-05-30 13:39:00,84.7,66.2,29.86,West,271,2.0,10.0,54,0.00,,,0.00,1028.0,meteohub,2013-05-30 17:39:00,
2013-05-30 13:44:00,85.3,67.3,29.86,WSW,255,3.0,10.0,55,0.00,,,0.00,976.0,meteohub,2013-05-30 17:44:00,
2013-05-30 13:49:00,84.9,65.8,29.85,SSW,194,3.0,9.0,53,0.00,,,0.00,909.0,meteohub,2013-05-30 17:49:00,
2013-05-30 13:54:00,85.6,66.6,29.85,SSW,208,5.0,10.0,53,0.00,,,0.00,923.0,meteohub,2013-05-30 17:54:00,
2013-05-30 13:59:00,84.9,65.3,29.85,SSW,200,3.0,11.0,52,0.00,,,0.00,928.0,meteohub,2013-05-30 17:59:00,
2013-05-30 14:04:00,85.6,67.6,29.85,SSW,210,1.0,11.0,55,0.00,,,0.00,928.0,meteohub,2013-05-30 18:04:00,
2013-05-30 14:09:00,86.4,64.9,29.85,SW,228,2.0,11.0,49,0.00,,,0.00,902.0,meteohub,2013-05-30 18:09:00,
2013-05-30 14:14:00,86.0,65.1,29.85,SW,231,3.0,9.0,50,0.00,,,0.00,912.0,meteohub,2013-05-30 18:14:00,
2013-05-30 14:19:00,85.6,65.5,29.84,SW,223,3.0,9.0,51,0.00,,,0.00,958.0,meteohub,2013-05-30 18:19:00,
2013-05-30 14:24:00,86.7,65.3,29.84,SW,226,2.0,9.0,49,0.00,,,0.00,958.0,meteohub,2013-05-30 18:24:00,
2013-05-30 14:30:00,86.5,65.1,29.84,SW,221,2.0,9.0,49,0.00,,,0.00,947.0,meteohub,2013-05-30 18:30:00,
2013-05-30 14:35:00,88.0,65.8,29.84,South,190,4.0,7.0,48,0.00,,,0.00,960.0,meteohub,2013-05-30 18:35:00,
2013-05-30 14:40:00,87.4,67.1,29.83,SSW,202,1.0,7.0,51,0.00,,,0.00,951.0,meteohub,2013-05-30 18:40:00,
2013-05-30 14:45:00,88.2,64.8,29.83,WSW,254,4.0,8.0,46,0.00,,,0.00,947.0,meteohub,2013-05-30 18:45:00,
2013-05-30 14:50:00,88.2,66.0,29.83,WNW,302,1.0,8.0,48,0.00,,,0.00,942.0,meteohub,2013-05-30 18:50:00,
2013-05-30 14:55:00,88.0,64.6,29.83,SW,222,3.0,8.0,46,0.00,,,0.00,962.0,meteohub,2013-05-30 18:55:00,
2013-05-30 15:00:00,85.8,64.4,29.83,NE,50,2.0,7.0,49,0.00,,,0.00,997.0,meteohub,2013-05-30 19:00:00,
2013-05-30 15:05:00,83.1,64.8,29.83,NE,39,3.0,7.0,54,0.00,,,0.00,907.0,meteohub,2013-05-30 19:05:00,
2013-05-30 15:10:00,82.2,64.4,29.83,North,0,3.0,7.0,55,0.00,,,0.00,881.0,meteohub,2013-05-30 19:10:00,
2013-05-30 15:15:00,81.7,65.5,29.83,NNE,28,0.0,5.0,58,0.00,,,0.00,895.0,meteohub,2013-05-30 19:15:00,
2013-05-30 15:20:00,81.3,64.0,29.83,NNE,12,0.0,7.0,56,0.00,,,0.00,879.0,meteohub,2013-05-30 19:20:00,
2013-05-30 15:25:00,81.7,64.9,29.82,NNE,18,0.0,7.0,57,0.00,,,0.00,881.0,meteohub,2013-05-30 19:25:00,
2013-05-30 15:30:00,82.9,66.2,29.82,SW,225,2.0,7.0,57,0.00,,,0.00,853.0,meteohub,2013-05-30 19:30:00,
2013-05-30 15:35:00,81.9,65.1,29.82,NW,311,1.0,7.0,57,0.00,,,0.00,858.0,meteohub,2013-05-30 19:35:00,
2013-05-30 15:40:00,81.9,65.7,29.82,NNW,332,1.0,7.0,58,0.00,,,0.00,847.0,meteohub,2013-05-30 19:40:00,
2013-05-30 15:45:00,82.0,65.8,29.82,NNE,32,4.0,4.0,58,0.00,,,0.00,874.0,meteohub,2013-05-30 19:45:00,
2013-05-30 15:50:00,82.4,65.7,29.82,NNE,17,3.0,4.0,57,0.00,,,0.00,886.0,meteohub,2013-05-30 19:50:00,
2013-05-30 15:55:00,82.6,65.3,29.82,NNE,22,2.0,5.0,56,0.00,,,0.00,933.0,meteohub,2013-05-30 19:55:00,
2013-05-30 16:00:00,82.0,65.8,29.82,NNE,23,1.0,5.0,58,0.00,,,0.00,290.0,meteohub,2013-05-30 20:00:00,
2013-05-30 16:05:00,81.3,65.7,29.81,NE,34,0.0,4.0,59,0.00,,,0.00,396.0,meteohub,2013-05-30 20:05:00,
2013-05-30 16:10:00,80.2,65.1,29.81,NNE,30,1.0,3.0,60,0.00,,,0.00,304.0,meteohub,2013-05-30 20:10:00,
2013-05-30 16:15:00,80.4,66.7,29.81,WSW,240,0.0,4.0,63,0.00,,,0.00,643.0,meteohub,2013-05-30 20:15:00,
2013-05-30 16:20:00,81.0,65.8,29.81,SE,141,2.0,4.0,60,0.00,,,0.00,840.0,meteohub,2013-05-30 20:20:00,
2013-05-30 16:25:00,82.2,66.9,29.81,NW,323,0.0,4.0,60,0.00,,,0.00,645.0,meteohub,2013-05-30 20:25:00,
2013-05-30 16:30:00,83.5,67.6,29.81,ENE,74,1.0,4.0,59,0.00,,,0.00,802.0,meteohub,2013-05-30 20:30:00,
2013-05-30 16:35:00,84.4,66.4,29.81,NNE,25,2.0,3.0,55,0.00,,,0.00,267.0,meteohub,2013-05-30 20:35:00,
2013-05-30 16:41:00,83.7,66.7,29.81,ENE,72,3.0,7.0,57,0.00,,,0.00,146.0,meteohub,2013-05-30 20:41:00,
2013-05-30 16:46:00,82.8,66.9,29.81,ENE,66,3.0,7.0,59,0.00,,,0.00,139.0,meteohub,2013-05-30 20:46:00,
2013-05-30 16:51:00,81.9,67.1,29.81,ENE,78,0.0,5.0,61,0.00,,,0.00,97.0,meteohub,2013-05-30 20:51:00,
2013-05-30 16:56:00,81.3,67.1,29.81,ENE,78,1.0,5.0,62,0.00,,,0.00,49.0,meteohub,2013-05-30 20:56:00,
2013-05-30 17:01:00,80.6,67.3,29.81,ENE,78,0.0,5.0,64,0.00,,,0.00,23.0,meteohub,2013-05-30 21:01:00,
2013-05-30 17:06:00,79.5,68.0,29.81,ENE,78,1.0,1.0,68,0.00,,,0.00,12.0,meteohub,2013-05-30 21:06:00,
2013-05-30 17:11:00,77.9,65.1,29.83,West,273,3.0,6.0,65,0.00,,,0.00,32.0,meteohub,2013-05-30 21:11:00,
2013-05-30 17:16:00,77.5,65.3,29.83,West,278,1.0,11.0,66,0.00,,,0.00,40.0,meteohub,2013-05-30 21:16:00,
2013-05-30 17:21:00,76.8,66.7,29.83,SW,236,1.0,11.0,71,0.00,,,0.00,49.0,meteohub,2013-05-30 21:21:00,
2013-05-30 17:26:00,75.7,66.9,29.83,WNW,292,1.0,12.0,74,0.00,,,0.00,72.0,meteohub,2013-05-30 21:26:00,
2013-05-30 17:31:00,74.7,66.9,29.83,WNW,292,0.0,12.0,77,0.01,,,0.01,127.0,meteohub,2013-05-30 21:31:00,
2013-05-30 17:36:00,73.8,67.3,29.83,WNW,292,1.0,5.0,80,0.01,,,0.01,214.0,meteohub,2013-05-30 21:36:00,
2013-05-30 17:41:00,73.4,67.3,29.83,WNW,292,1.0,2.0,81,0.01,,,0.01,200.0,meteohub,2013-05-30 21:41:00,
2013-05-30 17:46:00,73.6,67.1,29.82,WNW,292,1.0,1.0,80,0.01,,,0.01,135.0,meteohub,2013-05-30 21:46:00,
2013-05-30 17:51:00,74.1,67.6,29.82,SW,226,1.0,4.0,80,0.01,,,0.01,98.0,meteohub,2013-05-30 21:51:00,
2013-05-30 17:56:00,74.8,67.8,29.82,SW,229,2.0,5.0,79,0.01,,,0.01,79.0,meteohub,2013-05-30 21:56:00,
2013-05-30 18:01:00,75.4,68.4,29.82,SSW,196,2.0,5.0,79,0.01,,,0.01,69.0,meteohub,2013-05-30 22:01:00,
2013-05-30 18:06:00,75.9,67.8,29.81,ESE,107,2.0,4.0,76,0.01,,,0.01,65.0,meteohub,2013-05-30 22:06:00,
2013-05-30 18:11:00,76.5,68.0,29.81,SE,137,0.0,5.0,75,0.01,,,0.01,65.0,meteohub,2013-05-30 22:11:00,
2013-05-30 18:16:00,76.8,68.4,29.80,NNW,348,0.0,5.0,75,0.01,,,0.01,60.0,meteohub,2013-05-30 22:16:00,
2013-05-30 18:21:00,77.4,68.0,29.80,SSE,166,3.0,5.0,73,0.01,,,0.01,62.0,meteohub,2013-05-30 22:21:00,
2013-05-30 18:26:00,77.9,68.2,29.81,SW,222,6.0,6.0,72,0.01,,,0.01,69.0,meteohub,2013-05-30 22:26:00,
2013-05-30 18:31:00,78.4,68.7,29.81,SSW,213,4.0,7.0,72,0.00,,,0.01,65.0,meteohub,2013-05-30 22:31:00,
2013-05-30 18:37:00,78.6,68.4,29.81,SSW,205,3.0,7.0,71,0.00,,,0.01,65.0,meteohub,2013-05-30 22:37:00,
2013-05-30 18:42:00,78.8,68.5,29.81,South,177,2.0,7.0,71,0.00,,,0.01,70.0,meteohub,2013-05-30 22:42:00,
2013-05-30 18:47:00,79.0,68.4,29.80,WSW,252,6.0,6.0,70,0.00,,,0.01,83.0,meteohub,2013-05-30 22:47:00,
2013-05-30 18:52:00,78.8,68.5,29.80,SSW,204,5.0,8.0,71,0.00,,,0.01,102.0,meteohub,2013-05-30 22:52:00,
2013-05-30 18:57:00,79.0,68.7,29.81,WSW,244,7.0,8.0,71,0.00,,,0.01,123.0,meteohub,2013-05-30 22:57:00,
2013-05-30 19:02:00,79.0,69.3,29.80,SSW,208,2.0,7.0,72,0.00,,,0.01,132.0,meteohub,2013-05-30 23:02:00,
2013-05-30 19:07:00,79.2,69.3,29.81,SW,219,2.0,8.0,72,0.00,,,0.01,127.0,meteohub,2013-05-30 23:07:00,
2013-05-30 19:12:00,79.2,69.3,29.81,SW,235,5.0,8.0,72,0.00,,,0.01,114.0,meteohub,2013-05-30 23:12:00,
2013-05-30 19:17:00,79.2,69.3,29.80,SW,226,3.0,10.0,72,0.00,,,0.01,105.0,meteohub,2013-05-30 23:17:00,
2013-05-30 19:22:00,79.3,69.4,29.80,SSW,201,3.0,10.0,72,0.00,,,0.01,105.0,meteohub,2013-05-30 23:22:00,
2013-05-30 19:27:00,79.3,69.4,29.80,SW,221,4.0,10.0,72,0.00,,,0.01,123.0,meteohub,2013-05-30 23:27:00,
2013-05-30 19:32:00,79.3,69.4,29.80,WSW,254,6.0,8.0,72,0.00,,,0.01,163.0,meteohub,2013-05-30 23:32:00,
2013-05-30 19:37:00,79.5,69.6,29.80,SSW,192,4.0,8.0,72,0.00,,,0.01,160.0,meteohub,2013-05-30 23:37:00,
2013-05-30 19:42:00,79.9,70.0,29.80,SSW,207,4.0,10.0,72,0.00,,,0.01,125.0,meteohub,2013-05-30 23:42:00,
2013-05-30 19:47:00,80.2,69.1,29.80,SSW,198,4.0,18.0,69,0.00,,,0.01,109.0,meteohub,2013-05-30 23:47:00,
2013-05-30 19:52:00,80.2,66.6,29.80,SW,234,3.0,18.0,63,0.00,,,0.01,95.0,meteohub,2013-05-30 23:52:00,
2013-05-30 19:57:00,80.1,65.5,29.80,South,182,4.0,18.0,61,0.00,,,0.01,81.0,meteohub,2013-05-30 23:57:00,
2013-05-30 20:02:00,79.2,64.6,29.80,WSW,239,4.0,17.0,61,0.00,,,0.01,69.0,meteohub,2013-05-31 00:02:00,
2013-05-30 20:07:00,78.4,64.8,29.80,South,184,4.0,12.0,63,0.00,,,0.00,58.0,meteohub,2013-05-31 00:07:00,
2013-05-30 20:12:00,78.3,66.0,29.80,WSW,249,3.0,12.0,66,0.00,,,0.00,47.0,meteohub,2013-05-31 00:12:00,
2013-05-30 20:17:00,78.1,66.2,29.81,SW,235,7.0,9.0,67,0.00,,,0.00,39.0,meteohub,2013-05-31 00:17:00,
2013-05-30 20:22:00,77.5,66.2,29.81,SSW,200,3.0,9.0,68,0.00,,,0.00,33.0,meteohub,2013-05-31 00:22:00,
2013-05-30 20:27:00,77.4,66.7,29.81,SSW,207,5.0,9.0,70,0.00,,,0.00,30.0,meteohub,2013-05-31 00:27:00,
2013-05-30 20:32:00,76.8,66.7,29.81,West,266,5.0,10.0,71,0.00,,,0.00,26.0,meteohub,2013-05-31 00:32:00,
2013-05-30 20:37:00,76.6,66.9,29.81,SW,236,1.0,10.0,72,0.00,,,0.00,21.0,meteohub,2013-05-31 00:37:00,
2013-05-30 20:42:00,76.3,67.5,29.81,South,185,2.0,10.0,74,0.00,,,0.00,18.0,meteohub,2013-05-31 00:42:00,
2013-05-30 20:47:00,75.7,67.3,29.81,SW,234,4.0,10.0,75,0.00,,,0.00,12.0,meteohub,2013-05-31 00:47:00,
2013-05-30 20:52:00,75.4,67.6,29.81,SW,219,2.0,8.0,77,0.00,,,0.00,9.0,meteohub,2013-05-31 00:52:00,
2013-05-30 20:57:00,74.8,67.5,29.81,SW,236,2.0,8.0,78,0.00,,,0.00,7.0,meteohub,2013-05-31 00:57:00,
2013-05-30 21:02:00,74.5,67.5,29.81,SW,225,1.0,8.0,79,0.00,,,0.00,5.0,meteohub,2013-05-31 01:02:00,
2013-05-30 21:07:00,74.1,67.6,29.81,SW,227,3.0,7.0,80,0.00,,,0.00,0.0,meteohub,2013-05-31 01:07:00,
2013-05-30 21:12:00,73.9,67.8,29.81,West,267,0.0,6.0,81,0.00,,,0.00,0.0,meteohub,2013-05-31 01:12:00,
2013-05-30 21:17:00,73.8,68.0,29.81,WSW,243,1.0,6.0,82,0.00,,,0.00,0.0,meteohub,2013-05-31 01:17:00,
2013-05-30 21:22:00,73.6,68.2,29.81,SW,231,3.0,6.0,83,0.00,,,0.00,0.0,meteohub,2013-05-31 01:22:00,
2013-05-30 21:27:00,73.2,67.8,29.81,SW,221,3.0,6.0,83,0.00,,,0.00,0.0,meteohub,2013-05-31 01:27:00,
2013-05-30 21:33:00,73.0,68.0,29.81,SSW,194,4.0,7.0,84,0.00,,,0.00,0.0,meteohub,2013-05-31 01:33:00,
2013-05-30 21:38:00,73.0,68.2,29.81,WSW,239,2.0,7.0,85,0.00,,,0.00,0.0,meteohub,2013-05-31 01:38:00,
2013-05-30 21:43:00,72.9,68.0,29.81,SW,217,3.0,7.0,85,0.00,,,0.00,0.0,meteohub,2013-05-31 01:43:00,
2013-05-30 21:48:00,72.9,68.0,29.81,SW,229,1.0,7.0,85,0.00,,,0.00,0.0,meteohub,2013-05-31 01:48:00,
2013-05-30 21:53:00,72.9,68.0,29.81,South,187,3.0,7.0,85,0.00,,,0.00,0.0,meteohub,2013-05-31 01:53:00,
2013-05-30 21:58:00,73.0,68.2,29.81,SSW,210,1.0,9.0,85,0.00,,,0.00,0.0,meteohub,2013-05-31 01:58:00,
2013-05-30 22:03:00,73.2,68.4,29.82,NW,317,0.0,9.0,85,0.00,,,0.00,0.0,meteohub,2013-05-31 02:03:00,
2013-05-30 22:08:00,73.4,68.5,29.81,SW,227,1.0,9.0,85,0.00,,,0.00,0.0,meteohub,2013-05-31 02:08:00,
2013-05-30 22:13:00,73.8,68.5,29.81,WSW,253,4.0,6.0,84,0.00,,,0.00,0.0,meteohub,2013-05-31 02:13:00,
2013-05-30 22:18:00,74.1,68.5,29.82,SSW,200,2.0,6.0,83,0.00,,,0.00,0.0,meteohub,2013-05-31 02:18:00,
2013-05-30 22:23:00,74.5,68.5,29.81,SW,221,1.0,9.0,82,0.00,,,0.00,0.0,meteohub,2013-05-31 02:23:00,
2013-05-30 22:28:00,74.5,68.5,29.81,SW,226,2.0,10.0,82,0.00,,,0.00,0.0,meteohub,2013-05-31 02:28:00,
2013-05-30 22:33:00,74.5,68.5,29.81,SW,216,6.0,10.0,82,0.00,,,0.00,0.0,meteohub,2013-05-31 02:33:00,
2013-05-30 22:38:00,74.7,68.7,29.81,SW,231,7.0,10.0,82,0.00,,,0.00,0.0,meteohub,2013-05-31 02:38:00,
2013-05-30 22:43:00,74.7,68.7,29.81,WSW,248,1.0,10.0,82,0.00,,,0.00,0.0,meteohub,2013-05-31 02:43:00,
2013-05-30 22:48:00,74.5,68.5,29.82,SSW,207,1.0,10.0,82,0.00,,,0.00,0.0,meteohub,2013-05-31 02:48:00,
2013-05-30 22:53:00,74.5,68.5,29.82,WSW,246,10.0,10.0,82,0.00,,,0.00,0.0,meteohub,2013-05-31 02:53:00,
2013-05-30 22:58:00,74.3,68.4,29.82,SSW,200,1.0,11.0,82,0.00,,,0.00,0.0,meteohub,2013-05-31 02:58:00,
2013-05-30 23:03:00,74.1,68.2,29.81,WSW,237,1.0,11.0,82,0.00,,,0.00,0.0,meteohub,2013-05-31 03:03:00,
2013-05-30 23:08:00,73.9,68.4,29.82,SSW,211,1.0,11.0,83,0.00,,,0.00,0.0,meteohub,2013-05-31 03:08:00,
2013-05-30 23:13:00,73.8,68.4,29.82,South,190,4.0,9.0,83,0.00,,,0.00,0.0,meteohub,2013-05-31 03:13:00,
2013-05-30 23:19:00,73.6,68.2,29.82,SSW,200,7.0,9.0,83,0.00,,,0.00,0.0,meteohub,2013-05-31 03:19:00,
2013-05-30 23:24:00,73.6,68.2,29.81,South,188,4.0,10.0,83,0.00,,,0.00,0.0,meteohub,2013-05-31 03:24:00,
2013-05-30 23:29:00,73.4,68.2,29.81,South,186,2.0,10.0,84,0.00,,,0.00,0.0,meteohub,2013-05-31 03:29:00,
2013-05-30 23:34:00,73.2,68.2,29.80,SW,220,3.0,10.0,84,0.00,,,0.00,0.0,meteohub,2013-05-31 03:34:00,
2013-05-30 23:39:00,73.2,68.2,29.81,SSW,205,5.0,9.0,84,0.00,,,0.00,0.0,meteohub,2013-05-31 03:39:00,
2013-05-30 23:44:00,73.2,68.2,29.81,SSW,194,1.0,9.0,84,0.00,,,0.00,0.0,meteohub,2013-05-31 03:44:00,
2013-05-30 23:49:00,73.2,68.2,29.81,SSW,212,3.0,9.0,84,0.00,,,0.00,0.0,meteohub,2013-05-31 03:49:00,
2013-05-30 23:54:00,73.2,68.2,29.81,SSW,213,4.0,9.0,84,0.00,,,0.00,0.0,meteohub,2013-05-31 03:54:00,
2013-05-30 23:59:00,73.0,68.0,29.81,SW,235,1.0,9.0,84,0.00,,,0.00,0.0,meteohub,2013-05-31 03:59:00,